Year,Month,Day,Hour,Minute,Value (Times are PST for temperature in C)
2014,08,12,00,00,19.10
2014,08,12,00,01,19.00
2014,08,12,00,02,18.90
2014,08,12,00,03,18.70
2014,08,12,00,04,18.70
2014,08,12,00,05,18.60
2014,08,12,00,06,18.50
2014,08,12,00,07,18.40
2014,08,12,00,08,18.40
2014,08,12,00,09,18.40
2014,08,12,00,10,18.30
2014,08,12,00,11,18.30
2014,08,12,00,12,18.30
2014,08,12,00,13,18.30
2014,08,12,00,14,18.30
2014,08,12,00,15,18.30
2014,08,12,00,16,18.40
2014,08,12,00,17,18.30
2014,08,12,00,18,18.30
2014,08,12,00,19,18.30
2014,08,12,00,20,18.30
2014,08,12,00,21,18.30
2014,08,12,00,22,18.20
2014,08,12,00,23,18.20
2014,08,12,00,24,18.20
2014,08,12,00,25,18.20
2014,08,12,00,26,18.10
2014,08,12,00,27,18.10
2014,08,12,00,28,18.10
2014,08,12,00,29,18.00
2014,08,12,00,30,18.00
2014,08,12,00,31,17.90
2014,08,12,00,32,17.90
2014,08,12,00,33,17.90
2014,08,12,00,34,17.90
2014,08,12,00,35,17.80
2014,08,12,00,36,17.80
2014,08,12,00,37,17.80
2014,08,12,00,38,17.80
2014,08,12,00,39,17.80
2014,08,12,00,40,17.80
2014,08,12,00,41,17.70
2014,08,12,00,42,17.70
2014,08,12,00,43,17.70
2014,08,12,00,44,17.70
2014,08,12,00,45,17.70
2014,08,12,00,46,17.70
2014,08,12,00,47,17.70
2014,08,12,00,48,17.70
2014,08,12,00,49,17.70
2014,08,12,00,50,17.70
2014,08,12,00,51,17.70
2014,08,12,00,52,17.70
2014,08,12,00,53,17.70
2014,08,12,00,54,17.70
2014,08,12,00,55,17.70
2014,08,12,00,56,17.70
2014,08,12,00,57,17.70
2014,08,12,00,58,17.70
2014,08,12,00,59,17.70
2014,08,12,01,00,17.70
2014,08,12,01,01,17.70
2014,08,12,01,02,17.70
2014,08,12,01,03,17.70
2014,08,12,01,04,17.70
2014,08,12,01,05,17.70
2014,08,12,01,06,17.70
2014,08,12,01,07,17.70
2014,08,12,01,08,17.70
2014,08,12,01,09,17.70
2014,08,12,01,10,17.70
2014,08,12,01,11,17.70
2014,08,12,01,12,17.70
2014,08,12,01,13,17.70
2014,08,12,01,14,17.70
2014,08,12,01,15,17.70
2014,08,12,01,16,17.70
2014,08,12,01,17,17.80
2014,08,12,01,18,17.80
2014,08,12,01,19,17.80
2014,08,12,01,20,17.90
2014,08,12,01,21,17.90
2014,08,12,01,22,18.00
2014,08,12,01,23,18.00
2014,08,12,01,24,18.00
2014,08,12,01,25,18.10
2014,08,12,01,26,18.10
2014,08,12,01,27,18.10
2014,08,12,01,28,18.10
2014,08,12,01,29,18.10
2014,08,12,01,30,18.20
2014,08,12,01,31,18.20
2014,08,12,01,32,18.20
2014,08,12,01,33,18.20
2014,08,12,01,34,18.30
2014,08,12,01,35,18.30
2014,08,12,01,36,18.40
2014,08,12,01,37,18.40
2014,08,12,01,38,18.50
2014,08,12,01,39,18.60
2014,08,12,01,40,18.60
2014,08,12,01,41,18.60
2014,08,12,01,42,18.60
2014,08,12,01,43,18.60
2014,08,12,01,44,18.60
2014,08,12,01,45,18.60
2014,08,12,01,46,18.60
2014,08,12,01,47,18.60
2014,08,12,01,48,18.60
2014,08,12,01,49,18.50
2014,08,12,01,50,18.50
2014,08,12,01,51,18.50
2014,08,12,01,52,18.30
2014,08,12,01,53,18.10
2014,08,12,01,54,18.00
2014,08,12,01,55,17.90
2014,08,12,01,56,17.80
2014,08,12,01,57,17.70
2014,08,12,01,58,17.50
2014,08,12,01,59,17.20
2014,08,12,02,00,16.90
2014,08,12,02,01,16.70
2014,08,12,02,02,16.50
2014,08,12,02,03,16.30
2014,08,12,02,04,16.20
2014,08,12,02,05,16.10
2014,08,12,02,06,16.10
2014,08,12,02,07,16.00
2014,08,12,02,08,16.00
2014,08,12,02,09,15.90
2014,08,12,02,10,15.90
2014,08,12,02,11,15.90
2014,08,12,02,12,16.00
2014,08,12,02,13,16.00
2014,08,12,02,14,16.00
2014,08,12,02,15,16.10
2014,08,12,02,16,16.10
2014,08,12,02,17,16.10
2014,08,12,02,18,16.10
2014,08,12,02,19,16.10
2014,08,12,02,20,16.10
2014,08,12,02,21,16.10
2014,08,12,02,22,16.10
2014,08,12,02,23,16.20
2014,08,12,02,24,16.20
2014,08,12,02,25,16.20
2014,08,12,02,26,16.20
2014,08,12,02,27,16.30
2014,08,12,02,28,16.30
2014,08,12,02,29,16.30
2014,08,12,02,30,16.30
2014,08,12,02,31,16.30
2014,08,12,02,32,16.30
2014,08,12,02,33,16.30
2014,08,12,02,34,16.30
2014,08,12,02,35,16.30
2014,08,12,02,36,16.40
2014,08,12,02,37,16.40
2014,08,12,02,38,16.40
2014,08,12,02,39,16.40
2014,08,12,02,40,16.40
2014,08,12,02,41,16.50
2014,08,12,02,42,16.50
2014,08,12,02,43,16.60
2014,08,12,02,44,16.70
2014,08,12,02,45,16.70
2014,08,12,02,46,16.80
2014,08,12,02,47,16.80
2014,08,12,02,48,16.70
2014,08,12,02,49,16.70
2014,08,12,02,50,16.60
2014,08,12,02,51,16.60
2014,08,12,02,52,16.60
2014,08,12,02,53,16.70
2014,08,12,02,54,16.70
2014,08,12,02,55,16.70
2014,08,12,02,56,16.80
2014,08,12,02,57,16.80
2014,08,12,02,58,16.80
2014,08,12,02,59,16.90
2014,08,12,03,00,16.90
2014,08,12,03,01,16.90
2014,08,12,03,02,16.90
2014,08,12,03,03,16.90
2014,08,12,03,04,16.90
2014,08,12,03,05,17.00
2014,08,12,03,06,17.00
2014,08,12,03,07,17.00
2014,08,12,03,08,17.00
2014,08,12,03,09,17.10
2014,08,12,03,10,17.10
2014,08,12,03,11,17.10
2014,08,12,03,12,17.10
2014,08,12,03,13,17.10
2014,08,12,03,14,17.10
2014,08,12,03,15,17.10
2014,08,12,03,16,17.10
2014,08,12,03,17,17.10
2014,08,12,03,18,17.10
2014,08,12,03,19,17.10
2014,08,12,03,20,17.00
2014,08,12,03,21,17.00
2014,08,12,03,22,17.00
2014,08,12,03,23,17.00
2014,08,12,03,24,16.90
2014,08,12,03,25,16.90
2014,08,12,03,26,16.90
2014,08,12,03,27,16.90
2014,08,12,03,28,16.90
2014,08,12,03,29,16.90
2014,08,12,03,30,16.90
2014,08,12,03,31,16.90
2014,08,12,03,32,16.90
2014,08,12,03,33,16.90
2014,08,12,03,34,16.90
2014,08,12,03,35,16.80
2014,08,12,03,36,16.80
2014,08,12,03,37,16.80
2014,08,12,03,38,16.80
2014,08,12,03,39,16.80
2014,08,12,03,40,16.80
2014,08,12,03,41,16.80
2014,08,12,03,42,16.80
2014,08,12,03,43,16.80
2014,08,12,03,44,16.70
2014,08,12,03,45,16.70
2014,08,12,03,46,16.70
2014,08,12,03,47,16.70
2014,08,12,03,48,16.70
2014,08,12,03,49,16.70
2014,08,12,03,50,16.70
2014,08,12,03,51,16.70
2014,08,12,03,52,16.70
2014,08,12,03,53,16.70
2014,08,12,03,54,16.70
2014,08,12,03,55,16.70
2014,08,12,03,56,16.70
2014,08,12,03,57,16.70
2014,08,12,03,58,16.60
2014,08,12,03,59,16.70
2014,08,12,04,00,16.60
2014,08,12,04,01,16.60
2014,08,12,04,02,16.60
2014,08,12,04,03,16.60
2014,08,12,04,04,16.70
2014,08,12,04,05,16.70
2014,08,12,04,06,16.70
2014,08,12,04,07,16.70
2014,08,12,04,08,16.70
2014,08,12,04,09,16.80
2014,08,12,04,10,16.80
2014,08,12,04,11,16.80
2014,08,12,04,12,16.80
2014,08,12,04,13,16.90
2014,08,12,04,14,16.90
2014,08,12,04,15,17.00
2014,08,12,04,16,17.00
2014,08,12,04,17,17.10
2014,08,12,04,18,17.10
2014,08,12,04,19,17.10
2014,08,12,04,20,17.20
2014,08,12,04,21,17.20
2014,08,12,04,22,17.20
2014,08,12,04,23,17.20
2014,08,12,04,24,17.20
2014,08,12,04,25,17.20
2014,08,12,04,26,17.20
2014,08,12,04,27,17.30
2014,08,12,04,28,17.30
2014,08,12,04,29,17.30
2014,08,12,04,30,17.30
2014,08,12,04,31,17.30
2014,08,12,04,32,17.30
2014,08,12,04,33,17.30
2014,08,12,04,34,17.30
2014,08,12,04,35,17.30
2014,08,12,04,36,17.30
2014,08,12,04,37,17.20
2014,08,12,04,38,17.20
2014,08,12,04,39,17.20
2014,08,12,04,40,17.20
2014,08,12,04,41,17.20
2014,08,12,04,42,17.10
2014,08,12,04,43,17.10
2014,08,12,04,44,17.10
2014,08,12,04,45,17.10
2014,08,12,04,46,17.10
2014,08,12,04,47,17.10
2014,08,12,04,48,17.10
2014,08,12,04,49,17.10
2014,08,12,04,50,17.10
2014,08,12,04,51,17.10
2014,08,12,04,52,17.10
2014,08,12,04,53,17.10
2014,08,12,04,54,17.10
2014,08,12,04,55,17.10
2014,08,12,04,56,17.10
2014,08,12,04,57,17.10
2014,08,12,04,58,17.10
2014,08,12,04,59,17.10
2014,08,12,05,00,17.10
2014,08,12,05,01,17.10
2014,08,12,05,02,17.10
2014,08,12,05,03,17.00
2014,08,12,05,04,17.00
2014,08,12,05,05,17.00
2014,08,12,05,06,17.00
2014,08,12,05,07,17.10
2014,08,12,05,08,17.10
2014,08,12,05,09,17.10
2014,08,12,05,10,17.10
2014,08,12,05,11,17.10
2014,08,12,05,12,17.10
2014,08,12,05,13,17.10
2014,08,12,05,14,17.20
2014,08,12,05,15,17.20
2014,08,12,05,16,17.20
2014,08,12,05,17,17.20
2014,08,12,05,18,17.20
2014,08,12,05,19,17.20
2014,08,12,05,20,17.20
2014,08,12,05,21,17.20
2014,08,12,05,22,17.20
2014,08,12,05,23,17.20
2014,08,12,05,24,17.30
2014,08,12,05,25,17.30
2014,08,12,05,26,17.30
2014,08,12,05,27,17.30
2014,08,12,05,28,17.30
2014,08,12,05,29,17.30
2014,08,12,05,30,17.30
2014,08,12,05,31,17.30
2014,08,12,05,32,17.30
2014,08,12,05,33,17.30
2014,08,12,05,34,17.30
2014,08,12,05,35,17.30
2014,08,12,05,36,17.40
2014,08,12,05,37,17.40
2014,08,12,05,38,17.40
2014,08,12,05,39,17.50
2014,08,12,05,40,17.50
2014,08,12,05,41,17.50
2014,08,12,05,42,17.60
2014,08,12,05,43,17.60
2014,08,12,05,44,17.60
2014,08,12,05,45,17.60
2014,08,12,05,46,17.60
2014,08,12,05,47,17.60
2014,08,12,05,48,17.60
2014,08,12,05,49,17.60
2014,08,12,05,50,17.60
2014,08,12,05,51,17.60
2014,08,12,05,52,17.60
2014,08,12,05,53,17.60
2014,08,12,05,54,17.60
2014,08,12,05,55,17.60
2014,08,12,05,56,17.60
2014,08,12,05,57,17.60
2014,08,12,05,58,17.60
2014,08,12,05,59,17.60
2014,08,12,06,00,17.60
2014,08,12,06,01,17.60
2014,08,12,06,02,17.50
2014,08,12,06,03,17.60
2014,08,12,06,04,17.50
2014,08,12,06,05,17.50
2014,08,12,06,06,17.50
2014,08,12,06,07,17.50
2014,08,12,06,08,17.40
2014,08,12,06,09,17.40
2014,08,12,06,10,17.40
2014,08,12,06,11,17.30
2014,08,12,06,12,17.30
2014,08,12,06,13,17.20
2014,08,12,06,14,17.10
2014,08,12,06,15,17.10
2014,08,12,06,16,17.00
2014,08,12,06,17,16.90
2014,08,12,06,18,16.90
2014,08,12,06,19,16.90
2014,08,12,06,20,16.90
2014,08,12,06,21,16.90
2014,08,12,06,22,16.90
2014,08,12,06,23,16.90
2014,08,12,06,24,16.90
2014,08,12,06,25,16.90
2014,08,12,06,26,16.90
2014,08,12,06,27,17.00
2014,08,12,06,28,17.00
2014,08,12,06,29,17.00
2014,08,12,06,30,17.00
2014,08,12,06,31,17.00
2014,08,12,06,32,17.00
2014,08,12,06,33,17.10
2014,08,12,06,34,17.10
2014,08,12,06,35,17.10
2014,08,12,06,36,17.10
2014,08,12,06,37,17.10
2014,08,12,06,38,17.10
2014,08,12,06,39,17.10
2014,08,12,06,40,17.10
2014,08,12,06,41,17.10
2014,08,12,06,42,17.00
2014,08,12,06,43,17.00
2014,08,12,06,44,17.00
2014,08,12,06,45,17.00
2014,08,12,06,46,16.90
2014,08,12,06,47,16.90
2014,08,12,06,48,16.90
2014,08,12,06,49,16.90
2014,08,12,06,50,16.90
2014,08,12,06,51,16.90
2014,08,12,06,52,16.80
2014,08,12,06,53,16.80
2014,08,12,06,54,16.80
2014,08,12,06,55,16.80
2014,08,12,06,56,16.80
2014,08,12,06,57,16.80
2014,08,12,06,58,16.80
2014,08,12,06,59,16.80
2014,08,12,07,00,16.80
2014,08,12,07,01,16.90
2014,08,12,07,02,16.90
2014,08,12,07,03,16.90
2014,08,12,07,04,16.90
2014,08,12,07,05,16.90
2014,08,12,07,06,16.90
2014,08,12,07,07,16.90
2014,08,12,07,08,16.90
2014,08,12,07,09,16.80
2014,08,12,07,10,16.90
2014,08,12,07,11,16.90
2014,08,12,07,12,16.90
2014,08,12,07,13,16.90
2014,08,12,07,14,16.90
2014,08,12,07,15,16.90
2014,08,12,07,16,16.90
2014,08,12,07,17,16.90
2014,08,12,07,18,16.90
2014,08,12,07,19,16.90
2014,08,12,07,20,16.90
2014,08,12,07,21,16.90
2014,08,12,07,22,16.90
2014,08,12,07,23,16.90
2014,08,12,07,24,16.90
2014,08,12,07,25,16.80
2014,08,12,07,26,16.80
2014,08,12,07,27,16.80
2014,08,12,07,28,16.80
2014,08,12,07,29,16.80
2014,08,12,07,30,16.80
2014,08,12,07,31,16.80
2014,08,12,07,32,16.80
2014,08,12,07,33,16.80
2014,08,12,07,34,16.80
2014,08,12,07,35,16.80
2014,08,12,07,36,16.80
2014,08,12,07,37,16.80
2014,08,12,07,38,16.80
2014,08,12,07,39,16.70
2014,08,12,07,40,16.80
2014,08,12,07,41,16.70
2014,08,12,07,42,16.70
2014,08,12,07,43,16.70
2014,08,12,07,44,16.80
2014,08,12,07,45,16.80
2014,08,12,07,46,16.80
2014,08,12,07,47,16.80
2014,08,12,07,48,16.80
2014,08,12,07,49,16.80
2014,08,12,07,50,16.80
2014,08,12,07,51,16.80
2014,08,12,07,52,16.90
2014,08,12,07,53,16.90
2014,08,12,07,54,16.90
2014,08,12,07,55,16.90
2014,08,12,07,56,17.00
2014,08,12,07,57,17.10
2014,08,12,07,58,17.10
2014,08,12,07,59,17.10
2014,08,12,08,00,17.10
2014,08,12,08,01,17.20
2014,08,12,08,02,17.20
2014,08,12,08,03,17.20
2014,08,12,08,04,17.30
2014,08,12,08,05,17.30
2014,08,12,08,06,17.30
2014,08,12,08,07,17.40
2014,08,12,08,08,17.40
2014,08,12,08,09,17.50
2014,08,12,08,10,17.50
2014,08,12,08,11,17.60
2014,08,12,08,12,17.60
2014,08,12,08,13,17.70
2014,08,12,08,14,17.70
2014,08,12,08,15,17.70
2014,08,12,08,16,17.70
2014,08,12,08,17,17.80
2014,08,12,08,18,17.80
2014,08,12,08,19,17.80
2014,08,12,08,20,17.80
2014,08,12,08,21,17.80
2014,08,12,08,22,17.90
2014,08,12,08,23,17.90
2014,08,12,08,24,17.90
2014,08,12,08,25,17.90
2014,08,12,08,26,17.80
2014,08,12,08,27,17.80
2014,08,12,08,28,17.70
2014,08,12,08,29,17.60
2014,08,12,08,30,17.50
2014,08,12,08,31,17.40
2014,08,12,08,32,17.20
2014,08,12,08,33,17.00
2014,08,12,08,34,16.80
2014,08,12,08,35,16.70
2014,08,12,08,36,16.60
2014,08,12,08,37,16.50
2014,08,12,08,38,16.40
2014,08,12,08,39,16.30
2014,08,12,08,40,16.30
2014,08,12,08,41,16.30
2014,08,12,08,42,16.30
2014,08,12,08,43,16.30
2014,08,12,08,44,16.30
2014,08,12,08,45,16.30
2014,08,12,08,46,16.40
2014,08,12,08,47,16.40
2014,08,12,08,48,16.50
2014,08,12,08,49,16.50
2014,08,12,08,50,16.60
2014,08,12,08,51,16.60
2014,08,12,08,52,16.70
2014,08,12,08,53,16.70
2014,08,12,08,54,16.80
2014,08,12,08,55,16.80
2014,08,12,08,56,16.90
2014,08,12,08,57,17.00
2014,08,12,08,58,17.00
2014,08,12,08,59,17.10
2014,08,12,09,00,17.20
2014,08,12,09,01,17.30
2014,08,12,09,02,17.40
2014,08,12,09,03,17.50
2014,08,12,09,04,17.50
2014,08,12,09,05,17.60
2014,08,12,09,06,17.70
2014,08,12,09,07,17.80
2014,08,12,09,08,17.80
2014,08,12,09,09,17.90
2014,08,12,09,10,17.90
2014,08,12,09,11,17.90
2014,08,12,09,12,18.00
2014,08,12,09,13,18.00
2014,08,12,09,14,18.00
2014,08,12,09,15,18.10
2014,08,12,09,16,18.10
2014,08,12,09,17,18.10
2014,08,12,09,18,18.20
2014,08,12,09,19,18.20
2014,08,12,09,20,18.20
2014,08,12,09,21,18.30
2014,08,12,09,22,18.30
2014,08,12,09,23,18.40
2014,08,12,09,24,18.40
2014,08,12,09,25,18.50
2014,08,12,09,26,18.60
2014,08,12,09,27,18.60
2014,08,12,09,28,18.70
2014,08,12,09,29,18.70
2014,08,12,09,30,18.60
2014,08,12,09,31,18.50
2014,08,12,09,32,18.30
2014,08,12,09,33,18.00
2014,08,12,09,34,17.80
2014,08,12,09,35,17.60
2014,08,12,09,36,17.50
2014,08,12,09,37,17.30
2014,08,12,09,38,17.20
2014,08,12,09,39,17.00
2014,08,12,09,40,16.90
2014,08,12,09,41,16.90
2014,08,12,09,42,16.80
2014,08,12,09,43,16.80
2014,08,12,09,44,16.80
2014,08,12,09,45,16.80
2014,08,12,09,46,16.80
2014,08,12,09,47,16.80
2014,08,12,09,48,16.90
2014,08,12,09,49,16.90
2014,08,12,09,50,16.90
2014,08,12,09,51,16.90
2014,08,12,09,52,16.90
2014,08,12,09,53,17.00
2014,08,12,09,54,17.00
2014,08,12,09,55,17.10
2014,08,12,09,56,17.20
2014,08,12,09,57,17.20
2014,08,12,09,58,17.20
2014,08,12,09,59,17.30
2014,08,12,10,00,17.30
2014,08,12,10,01,17.30
2014,08,12,10,02,17.20
2014,08,12,10,03,17.20
2014,08,12,10,04,17.20
2014,08,12,10,05,17.30
2014,08,12,10,06,17.30
2014,08,12,10,07,17.40
2014,08,12,10,08,17.40
2014,08,12,10,09,17.50
2014,08,12,10,10,17.50
2014,08,12,10,11,17.60
2014,08,12,10,12,17.60
2014,08,12,10,13,17.70
2014,08,12,10,14,17.70
2014,08,12,10,15,17.80
2014,08,12,10,16,17.80
2014,08,12,10,17,17.90
2014,08,12,10,18,17.90
2014,08,12,10,19,18.00
2014,08,12,10,20,18.00
2014,08,12,10,21,18.10
2014,08,12,10,22,18.10
2014,08,12,10,23,18.20
2014,08,12,10,24,18.20
2014,08,12,10,25,18.20
2014,08,12,10,26,18.20
2014,08,12,10,27,18.30
2014,08,12,10,28,18.30
2014,08,12,10,29,18.40
2014,08,12,10,30,18.40
2014,08,12,10,31,18.50
2014,08,12,10,32,18.50
2014,08,12,10,33,18.50
2014,08,12,10,34,18.60
2014,08,12,10,35,18.70
2014,08,12,10,36,18.70
2014,08,12,10,37,18.80
2014,08,12,10,38,18.90
2014,08,12,10,39,18.90
2014,08,12,10,40,19.00
2014,08,12,10,41,19.10
2014,08,12,10,42,19.10
2014,08,12,10,43,19.20
2014,08,12,10,44,19.30
2014,08,12,10,45,19.40
2014,08,12,10,46,19.50
2014,08,12,10,47,19.60
2014,08,12,10,48,19.70
2014,08,12,10,49,19.80
2014,08,12,10,50,19.80
2014,08,12,10,51,19.90
2014,08,12,10,52,20.00
2014,08,12,10,53,20.10
2014,08,12,10,54,20.20
2014,08,12,10,55,20.30
2014,08,12,10,56,20.40
2014,08,12,10,57,20.50
2014,08,12,10,58,20.50
2014,08,12,10,59,20.60
2014,08,12,11,00,20.60
2014,08,12,11,01,20.60
2014,08,12,11,02,20.70
2014,08,12,11,03,20.70
2014,08,12,11,04,20.70
2014,08,12,11,05,20.60
2014,08,12,11,06,20.60
2014,08,12,11,07,20.60
2014,08,12,11,08,20.60
2014,08,12,11,09,20.60
2014,08,12,11,10,20.60
2014,08,12,11,11,20.70
2014,08,12,11,12,20.70
2014,08,12,11,13,20.80
2014,08,12,11,14,20.80
2014,08,12,11,15,20.90
2014,08,12,11,16,20.90
2014,08,12,11,17,21.00
2014,08,12,11,18,21.10
2014,08,12,11,19,21.10
2014,08,12,11,20,21.20
2014,08,12,11,21,21.20
2014,08,12,11,22,21.30
2014,08,12,11,23,21.30
2014,08,12,11,24,21.30
2014,08,12,11,25,21.40
2014,08,12,11,26,21.40
2014,08,12,11,27,21.40
2014,08,12,11,28,21.50
2014,08,12,11,29,21.50
2014,08,12,11,30,21.60
2014,08,12,11,31,21.60
2014,08,12,11,32,21.70
2014,08,12,11,33,21.70
2014,08,12,11,34,21.80
2014,08,12,11,35,21.90
2014,08,12,11,36,21.90
2014,08,12,11,37,22.00
2014,08,12,11,38,22.00
2014,08,12,11,39,22.00
2014,08,12,11,40,22.00
2014,08,12,11,41,21.90
2014,08,12,11,42,21.90
2014,08,12,11,43,21.90
2014,08,12,11,44,21.90
2014,08,12,11,45,22.00
2014,08,12,11,46,22.00
2014,08,12,11,47,22.00
2014,08,12,11,48,22.10
2014,08,12,11,49,22.10
2014,08,12,11,50,22.20
2014,08,12,11,51,22.20
2014,08,12,11,52,22.30
2014,08,12,11,53,22.30
2014,08,12,11,54,22.30
2014,08,12,11,55,22.40
2014,08,12,11,56,22.40
2014,08,12,11,57,22.40
2014,08,12,11,58,22.50
2014,08,12,11,59,22.50
2014,08,12,12,00,22.50
2014,08,12,12,01,22.50
2014,08,12,12,02,22.60
2014,08,12,12,03,22.60
2014,08,12,12,04,22.60
2014,08,12,12,05,22.60
2014,08,12,12,06,22.60
2014,08,12,12,07,22.60
2014,08,12,12,08,22.70
2014,08,12,12,09,22.70
2014,08,12,12,10,22.70
2014,08,12,12,11,22.70
2014,08,12,12,12,22.70
2014,08,12,12,13,22.80
2014,08,12,12,14,22.80
2014,08,12,12,15,22.80
2014,08,12,12,16,22.80
2014,08,12,12,17,22.80
2014,08,12,12,18,22.80
2014,08,12,12,19,22.90
2014,08,12,12,20,22.90
2014,08,12,12,21,23.00
2014,08,12,12,22,23.00
2014,08,12,12,23,23.10
2014,08,12,12,24,23.20
2014,08,12,12,25,23.30
2014,08,12,12,26,23.30
2014,08,12,12,27,23.50
2014,08,12,12,28,23.60
2014,08,12,12,29,23.70
2014,08,12,12,30,23.90
2014,08,12,12,31,24.00
2014,08,12,12,32,24.10
2014,08,12,12,33,24.20
2014,08,12,12,34,24.20
2014,08,12,12,35,24.30
2014,08,12,12,36,24.40
2014,08,12,12,37,24.40
2014,08,12,12,38,24.60
2014,08,12,12,39,24.70
2014,08,12,12,40,24.80
2014,08,12,12,41,25.00
2014,08,12,12,42,25.00
2014,08,12,12,43,25.10
2014,08,12,12,44,25.20
2014,08,12,12,45,25.30
2014,08,12,12,46,25.40
2014,08,12,12,47,25.50
2014,08,12,12,48,25.70
2014,08,12,12,49,25.80
2014,08,12,12,50,26.00
2014,08,12,12,51,26.10
2014,08,12,12,52,26.20
2014,08,12,12,53,26.40
2014,08,12,12,54,26.50
2014,08,12,12,55,26.60
2014,08,12,12,56,26.70
2014,08,12,12,57,26.80
2014,08,12,12,58,26.80
2014,08,12,12,59,26.90
2014,08,12,13,00,26.90
2014,08,12,13,01,26.90
2014,08,12,13,02,26.90
2014,08,12,13,03,26.90
2014,08,12,13,04,26.90
2014,08,12,13,05,26.80
2014,08,12,13,06,26.80
2014,08,12,13,07,26.80
2014,08,12,13,08,26.70
2014,08,12,13,09,26.70
2014,08,12,13,10,26.60
2014,08,12,13,11,26.60
2014,08,12,13,12,26.50
2014,08,12,13,13,26.30
2014,08,12,13,14,26.10
2014,08,12,13,15,25.80
2014,08,12,13,16,25.60
2014,08,12,13,17,25.50
2014,08,12,13,18,25.40
2014,08,12,13,19,25.30
2014,08,12,13,20,25.30
2014,08,12,13,21,25.20
2014,08,12,13,22,25.20
2014,08,12,13,23,25.10
2014,08,12,13,24,25.10
2014,08,12,13,25,25.00
2014,08,12,13,26,24.90
2014,08,12,13,27,24.90
2014,08,12,13,28,24.80
2014,08,12,13,29,24.70
2014,08,12,13,30,24.60
2014,08,12,13,31,24.60
2014,08,12,13,32,24.60
2014,08,12,13,33,24.60
2014,08,12,13,34,24.50
2014,08,12,13,35,24.40
2014,08,12,13,36,24.40
2014,08,12,13,37,24.30
2014,08,12,13,38,24.30
2014,08,12,13,39,24.20
2014,08,12,13,40,24.20
2014,08,12,13,41,24.30
2014,08,12,13,42,24.30
2014,08,12,13,43,24.30
2014,08,12,13,44,24.40
2014,08,12,13,45,24.40
2014,08,12,13,46,24.40
2014,08,12,13,47,24.40
2014,08,12,13,48,24.40
2014,08,12,13,49,24.40
2014,08,12,13,50,24.30
2014,08,12,13,51,24.30
2014,08,12,13,52,24.30
2014,08,12,13,53,24.30
2014,08,12,13,54,24.20
2014,08,12,13,55,24.20
2014,08,12,13,56,24.10
2014,08,12,13,57,24.00
2014,08,12,13,58,24.00
2014,08,12,13,59,24.00
2014,08,12,14,00,24.10
2014,08,12,14,01,24.10
2014,08,12,14,02,24.00
2014,08,12,14,03,23.90
2014,08,12,14,04,23.90
2014,08,12,14,05,23.90
2014,08,12,14,06,24.00
2014,08,12,14,07,24.00
2014,08,12,14,08,23.90
2014,08,12,14,09,23.90
2014,08,12,14,10,24.00
2014,08,12,14,11,24.00
2014,08,12,14,12,24.10
2014,08,12,14,13,24.10
2014,08,12,14,14,24.20
2014,08,12,14,15,24.30
2014,08,12,14,16,24.40
2014,08,12,14,17,24.40
2014,08,12,14,18,24.40
2014,08,12,14,19,24.40
2014,08,12,14,20,24.40
2014,08,12,14,21,24.40
2014,08,12,14,22,24.40
2014,08,12,14,23,24.40
2014,08,12,14,24,24.40
2014,08,12,14,25,24.50
2014,08,12,14,26,24.50
2014,08,12,14,27,24.60
2014,08,12,14,28,24.60
2014,08,12,14,29,24.60
2014,08,12,14,30,24.70
2014,08,12,14,31,24.70
2014,08,12,14,32,24.80
2014,08,12,14,33,24.80
2014,08,12,14,34,24.90
2014,08,12,14,35,24.90
2014,08,12,14,36,25.00
2014,08,12,14,37,25.10
2014,08,12,14,38,25.20
2014,08,12,14,39,25.20
2014,08,12,14,40,25.30
2014,08,12,14,41,25.30
2014,08,12,14,42,25.40
2014,08,12,14,43,25.50
2014,08,12,14,44,25.50
2014,08,12,14,45,25.50
2014,08,12,14,46,25.50
2014,08,12,14,47,25.50
2014,08,12,14,48,25.50
2014,08,12,14,49,25.40
2014,08,12,14,50,25.40
2014,08,12,14,51,25.50
2014,08,12,14,52,25.60
2014,08,12,14,53,25.70
2014,08,12,14,54,25.70
2014,08,12,14,55,25.80
2014,08,12,14,56,25.70
2014,08,12,14,57,25.50
2014,08,12,14,58,25.30
2014,08,12,14,59,25.00
2014,08,12,15,00,24.70
2014,08,12,15,01,24.40
2014,08,12,15,02,24.20
2014,08,12,15,03,24.00
2014,08,12,15,04,23.90
2014,08,12,15,05,23.80
2014,08,12,15,06,23.70
2014,08,12,15,07,23.60
2014,08,12,15,08,23.50
2014,08,12,15,09,23.50
2014,08,12,15,10,23.40
2014,08,12,15,11,23.40
2014,08,12,15,12,23.30
2014,08,12,15,13,23.30
2014,08,12,15,14,23.30
2014,08,12,15,15,23.30
2014,08,12,15,16,23.30
2014,08,12,15,17,23.30
2014,08,12,15,18,23.20
2014,08,12,15,19,23.20
2014,08,12,15,20,23.20
2014,08,12,15,21,23.20
2014,08,12,15,22,23.20
2014,08,12,15,23,23.20
2014,08,12,15,24,23.20
2014,08,12,15,25,23.30
2014,08,12,15,26,23.40
2014,08,12,15,27,23.40
2014,08,12,15,28,23.50
2014,08,12,15,29,23.60
2014,08,12,15,30,23.60
2014,08,12,15,31,23.70
2014,08,12,15,32,23.80
2014,08,12,15,33,23.90
2014,08,12,15,34,24.00
2014,08,12,15,35,24.10
2014,08,12,15,36,24.20
2014,08,12,15,37,24.30
2014,08,12,15,38,24.40
2014,08,12,15,39,24.50
2014,08,12,15,40,24.50
2014,08,12,15,41,24.60
2014,08,12,15,42,24.70
2014,08,12,15,43,24.70
2014,08,12,15,44,24.70
2014,08,12,15,45,24.80
2014,08,12,15,46,24.80
2014,08,12,15,47,24.70
2014,08,12,15,48,24.70
2014,08,12,15,49,24.60
2014,08,12,15,50,24.50
2014,08,12,15,51,24.40
2014,08,12,15,52,24.30
2014,08,12,15,53,24.30
2014,08,12,15,54,24.20
2014,08,12,15,55,24.20
2014,08,12,15,56,24.20
2014,08,12,15,57,24.20
2014,08,12,15,58,24.20
2014,08,12,15,59,24.20
2014,08,12,16,00,24.30
2014,08,12,16,01,24.40
2014,08,12,16,02,24.40
2014,08,12,16,03,24.40
2014,08,12,16,04,24.50
2014,08,12,16,05,24.60
2014,08,12,16,06,24.50
2014,08,12,16,07,24.50
2014,08,12,16,08,24.50
2014,08,12,16,09,24.40
2014,08,12,16,10,24.30
2014,08,12,16,11,24.10
2014,08,12,16,12,24.00
2014,08,12,16,13,23.90
2014,08,12,16,14,23.90
2014,08,12,16,15,23.90
2014,08,12,16,16,23.90
2014,08,12,16,17,23.90
2014,08,12,16,18,23.90
2014,08,12,16,19,24.00
2014,08,12,16,20,24.00
2014,08,12,16,21,24.00
2014,08,12,16,22,24.10
2014,08,12,16,23,24.00
2014,08,12,16,24,24.00
2014,08,12,16,25,23.90
2014,08,12,16,26,23.90
2014,08,12,16,27,23.90
2014,08,12,16,28,23.80
2014,08,12,16,29,23.80
2014,08,12,16,30,23.70
2014,08,12,16,31,23.60
2014,08,12,16,32,23.50
2014,08,12,16,33,23.40
2014,08,12,16,34,23.40
2014,08,12,16,35,23.40
2014,08,12,16,36,23.40
2014,08,12,16,37,23.40
2014,08,12,16,38,23.40
2014,08,12,16,39,23.50
2014,08,12,16,40,23.50
2014,08,12,16,41,23.60
2014,08,12,16,42,23.70
2014,08,12,16,43,23.70
2014,08,12,16,44,23.70
2014,08,12,16,45,23.70
2014,08,12,16,46,23.70
2014,08,12,16,47,23.70
2014,08,12,16,48,23.80
2014,08,12,16,49,23.80
2014,08,12,16,50,23.80
2014,08,12,16,51,23.80
2014,08,12,16,52,23.80
2014,08,12,16,53,23.70
2014,08,12,16,54,23.70
2014,08,12,16,55,23.70
2014,08,12,16,56,23.70
2014,08,12,16,57,23.70
2014,08,12,16,58,23.70
2014,08,12,16,59,23.60
2014,08,12,17,00,23.60
2014,08,12,17,01,23.70
2014,08,12,17,02,23.70
2014,08,12,17,03,23.70
2014,08,12,17,04,23.70
2014,08,12,17,05,23.70
2014,08,12,17,06,23.80
2014,08,12,17,07,23.90
2014,08,12,17,08,24.00
2014,08,12,17,09,24.10
2014,08,12,17,10,24.30
2014,08,12,17,11,24.40
2014,08,12,17,12,24.50
2014,08,12,17,13,24.60
2014,08,12,17,14,24.70
2014,08,12,17,15,24.70
2014,08,12,17,16,24.70
2014,08,12,17,17,24.80
2014,08,12,17,18,24.90
2014,08,12,17,19,24.90